Location: Eaton
(41.3139°N, 82.0207°W)
Time: 16:24:37
(UTC+00:00)

Cosmos 968 Rocket - Pass Details

Date: 17 June 2021
Orbit: 741 x 771 km, 74.0° (Epoch: 01 August)

Event Time Altitude Azimuth Distance (km) Brightness Sun altitude
Rises 03:24:31 0° 348° (NNW) 3,187 8.1 -19.2°
Reaches altitude 10° 03:27:05 10° 358° (N) 2,261 6.9 -19.4°
Maximum altitude 03:31:44 34° 63° (ENE) 1,206 4.5 -19.8°
Enters shadow 03:33:30 27° 101° (ESE) 1,409 4.5 -20.0°
